Вернуться в каталог

COSMOS 2406

АктивенНавигацияLEO
NORAD 28352·PAYLOAD·🇷🇺 Russia

Запущен Jun 10, 2004 с Baikonur Cosmodrome

Loading…

Ближайшие Пролёты (ближайшие 24 часа)

TLE

СвежийSource: Space-Track

Эпоха: Sep 14, 2026, 12:12 UTC

1 28352U 04021A   26257.50873681  .00000355  00000-0  21895-3 0  9998
2 28352  71.0004 272.7378 0007794 339.7211  20.3599 14.12184867147320

Отслеживайте COSMOS 2406 в реальном времени с AllMySat

Download on the App Store